This is the latest recevied weather packets stored in our database for station/object K9NZF-1. If no packets are shown the sender has not sent any weather packets the latest 10 day(s).
| Time | Temp. | Humidity | Pressure | Rain* | Wind** | Luminosity | Snow |
|---|---|---|---|---|---|---|---|
| 1777556163 | 6.67° C | 82% | 1016.2 hPa | 0 mm | - | 278 W/m² | - |
| 1777556104 | 6.67° C | 82% | 1016.2 hPa | 0 mm | - | 267 W/m² | - |
| 1777556042 | 6.67° C | 82% | 1016.1 hPa | 0 mm | - | 269 W/m² | - |
| 1777555984 | 6.11° C | 82% | 1016.2 hPa | 0 mm | - | 146 W/m² | - |
| 1777555923 | 6.11° C | 82% | 1016.2 hPa | 0 mm | - | 329 W/m² | - |
| 1777555865 | 6.11° C | 83% | 1016.2 hPa | 0 mm | - | 329 W/m² | - |
| 1777555805 | 6.11° C | 83% | 1016.2 hPa | 0 mm | - | 353 W/m² | - |
| 1777555742 | 6.11° C | 83% | 1016.2 hPa | 0 mm | - | 267 W/m² | - |
| 1777555682 | 6.11° C | 83% | 1016.2 hPa | 0 mm | - | 408 W/m² | - |
| 1777555615 | 6.11° C | 83% | 1016.3 hPa | 0 mm | - | 408 W/m² | - |
| 1777555556 | 6.11° C | 83% | 1016.1 hPa | 0 mm | - | 462 W/m² | - |
| 1777555494 | 6.11° C | 84% | 1016.1 hPa | 0 mm | - | 476 W/m² | - |
| 1777555433 | 6.11° C | 84% | 1016 hPa | 0 mm | - | 510 W/m² | - |
| 1777555372 | 6.11° C | 84% | 1016 hPa | 0 mm | - | 476 W/m² | - |
| 1777555312 | 6.11° C | 85% | 1016 hPa | 0 mm | - | 385 W/m² | - |
| 1777555246 | 6.11° C | 85% | 1016 hPa | 0 mm | - | 348 W/m² | - |
| 1777555185 | 6.11° C | 85% | 1016 hPa | 0 mm | - | 192 W/m² | - |
| 1777555123 | 6.11° C | 85% | 1015.8 hPa | 0 mm | - | 192 W/m² | - |
| 1777555063 | 6.11° C | 85% | 1016 hPa | 0 mm | - | 336 W/m² | - |
| 1777555002 | 5.56° C | 85% | 1016 hPa | 0 mm | - | 343 W/m² | - |
| 1777554943 | 5.56° C | 86% | 1016 hPa | 0 mm | - | 267 W/m² | - |
| 1777554880 | 5.56° C | 86% | 1016 hPa | 0 mm | - | 269 W/m² | - |
| 1777554820 | 5.56° C | 86% | 1015.8 hPa | 0 mm | - | 116 W/m² | - |
| 1777554758 | 5.56° C | 87% | 1015.8 hPa | 0 mm | - | 116 W/m² | - |
| 1777554698 | 5.56° C | 87% | 1015.8 hPa | 0 mm | - | 125 W/m² | - |
* Rain latest hour (hover to see other rain measurements)
** Current wind speed in m/s (hover to see current wind gust speed)